Погода в Михайловке

Россия / Омская область     56°50′29″N   75°08′45″E
темп.,
°C
ветер,
м/с
пор.,
м/с
влажн.,
%
обл.,
%
осадки,
мм/ч
давл.,
гПа
погр.,
м
27 января, чт
чт2700:00−23ююз21100100 0.0 103011
03:00−23ююз22100100 0.0 103121
06:00−23ююз23100100 0.0 103138
09:00−22ююз26100100 0.0 103280
12:00−15ю2596100 0.1 1031161
15:00−12ю3694100 0.0 1030294
18:00−15ю3897100 0.1 1031173
21:00−16ю31096100 0.0 1031184
28 января, пт
пт2800:00−17ю399584 0.0 1029182
03:00−16ю31095100 0.0 1029227
06:00−14ю379590 0.2 1028185
09:00−16ююз269877 0.1 1029118
12:00−12ююз2595100 0.1 1028173
15:00−9ююз2594100 0.1 1028260
18:00−12ю2598100 0.1 1028101
21:00−15ююз269999 0.0 102984
29 января, сб
сб2900:00−17ююз24100100 0.1 102857
03:00−19ююз23100100 0.0 102937
06:00−20ю11100100 0.1 102915
09:00−21ю11100100 0.0 103014
12:00−13ю129597 0.1 1029128
15:00−10ююв239186 0.0 1029235
18:00−16юв229831 0.0 102935
21:00−18юв259717 0.0 102976
30 января, вс
вс3000:00−20юв269773 0.0 102998
03:00−20вюв279468 0.0 1028103
06:00−18вюв3119088 0.0 1026171
09:00−16вюв4128517 0.0 1024247
12:00−12юв4128150 0.0 1023353
15:00−10юв398854 0.0 1021362
18:00−11юв41195100 0.1 1020307
21:00−10ююв31095100 0.2 1020324
31 января, пн
пн3100:00−8ю399589 0.5 1020413
03:00−12ююз389699 0.1 1021256
06:00−20ююз27985 0.1 1023117
09:00−21ююз269815 0.0 1024102
12:00−14ююз369253 0.0 1025181
15:00−9ююз3893100 0.0 1024302
18:00−10ю3109694 0.1 1025265
21:00−10ююз3109694 0.1 1026257